Dryden, TX

3:45 PM CDT on April 25, 2017 (GMT -0500)
Dryden

Weather History for K6R6 - July, 2014

Change the Weather History Date:

Tuesday, July 15, 2014

  Actual Average (KFST) Record (KFST)
Temperature  
Mean Temperature 89 °F -  
Max Temperature 102 °F 93 °F 102 °F (2001)
Min Temperature 78 °F 69 °F 62 °F (2013)
Cooling Degree Days 24    
Growing Degree Days 39 (Base 50)    
Moisture  
Dew Point 61 °F    
Average Humidity 42    
Maximum Humidity 60    
Minimum Humidity 22    
Precipitation  
Precipitation 0.00 in - - ()
Sea Level Pressure  
Sea Level Pressure 29.89 in    
Wind  
Wind Speed 8 mph (ENE)    
Max Wind Speed 18 mph    
Max Gust Speed 26 mph    
Averages and records for this station are not official NWS values.
T = Trace of Precipitation, MM = Missing Value Source: NWS Daily Summary

Daily Weather History Graph

Daily Weather History Graph

Search for Another Location

Airport or City:

Trip Planner

Search our weather history database for the weather conditions in past years. The results will help you decide how hot, cold, wet, or windy it might be!

Date:

Astronomy

Jul. 15, 2014 Rise Set
Actual Time 6:57 AM CDT 8:51 PM CDT
Civil Twilight 6:31 AM CDT 9:18 PM CDT
Nautical Twilight 5:58 AM CDT 9:50 PM CDT
Astronomical Twilight 5:24 AM CDT 10:25 PM CDT
Moon 11:22 PM CDT (7/15) 10:35 AM CDT (7/15)
Length of Visible Light 14h 47m
Length of Day
13h 53m
Waning Gibbous, 85% of the Moon is Illuminated
Jul 15
Waning Gibbous
Jul 18
Last Quarter
Jul 26
New
Aug 3
First Quarter
Aug 10
Full

Hourly Weather History & Observations

Time (CDT) Temp. Heat Index Dew Point Humidity Pressure Visibility Wind Dir Wind Speed Gust Speed Precip Events Conditions
1:53 AM 82.9 °F 83.2 °F 60.1 °F 46% 29.90 in - NW 3.5 mph - N/A   Unknown
2:53 AM 82.0 °F 82.1 °F 59.0 °F 45% 29.90 in - North 5.8 mph - N/A   Unknown
3:53 AM 80.1 °F 80.6 °F 57.9 °F 47% 29.89 in - NE 6.9 mph - N/A   Unknown
4:53 AM 80.1 °F 80.6 °F 57.9 °F 47% 29.89 in - NNE 5.8 mph - N/A   Unknown
5:53 AM 78.1 °F - 57.9 °F 50% 29.91 in - NNE 8.1 mph - N/A   Unknown
6:53 AM 78.1 °F - 59.0 °F 52% 29.92 in - NNE 9.2 mph - N/A   Unknown
7:53 AM 79.0 °F - 62.1 °F 56% 29.93 in - North 6.9 mph - N/A   Unknown
8:53 AM 84.0 °F 85.4 °F 64.0 °F 51% 29.95 in - NE 11.5 mph - N/A   Unknown
9:53 AM 88.0 °F 89.3 °F 64.0 °F 45% 29.95 in - ENE 10.4 mph - N/A   Unknown
10:53 AM 90.0 °F 90.6 °F 63.0 °F 40% 29.95 in - NE 9.2 mph - N/A   Unknown
11:53 AM 95.0 °F 96.0 °F 63.0 °F 34% 29.95 in - NE 10.4 mph - N/A   Unknown
1:53 PM 99.0 °F 99.5 °F 60.1 °F 28% 29.90 in - East 12.7 mph 17.3 mph N/A   Unknown
2:53 PM 99.0 °F 98.1 °F 57.0 °F 25% 29.88 in - East 9.2 mph - N/A   Unknown
3:53 PM 99.0 °F 97.7 °F 55.9 °F 24% 29.86 in - Variable 5.8 mph 19.6 mph N/A   Unknown
4:53 PM 100.9 °F 99.6 °F 55.0 °F 22% 29.83 in - ESE 8.1 mph - N/A   Unknown
5:53 PM 95.0 °F 94.4 °F 59.0 °F 30% 29.82 in - East 16.1 mph 26.5 mph N/A   Unknown
6:53 PM 95.0 °F 95.2 °F 61.0 °F 32% 29.82 in - East 18.4 mph 25.3 mph N/A   Unknown
7:53 PM 91.0 °F 92.6 °F 64.0 °F 41% 29.84 in - ESE 12.7 mph 23.0 mph N/A   Unknown
8:53 PM 89.1 °F 91.0 °F 64.9 °F 45% 29.87 in - East 6.9 mph - N/A   Unknown
9:53 PM 88.0 °F 89.3 °F 64.0 °F 45% 29.88 in - ESE 10.4 mph - N/A   Unknown
10:53 PM 84.9 °F 87.6 °F 66.9 °F 55% 29.91 in - ENE 12.7 mph 16.1 mph N/A   Unknown
11:53 PM 81.0 °F 83.0 °F 66.0 °F 60% 29.92 in - ENE 5.8 mph - N/A   Unknown